Location: Arboyeti
(42.1122°N, 44.6017°E)
Time: 20:03:00
(UTC+00:00)

Cosmos 2366 rocket - Pass Details

Date: 19 April 2021
Orbit: 954 x 998 km, 82.9° (Epoch: 18 May)

Event Time Altitude Azimuth Distance (km) Brightness Sun altitude
Rises 22:57:29 0° 348° (NNW) 3,645 7.6 -30.0°
Reaches altitude 10° 23:00:01 10° 346° (NNW) 2,693 6.8 -29.8°
Enters shadow 23:05:13 56° 303° (WNW) 1,130 4.2 -29.2°
